This is the latest recevied weather packets stored in our database for station/object 4S6DRJ-13. If no packets are shown the sender has not sent any weather packets the latest 10 day(s).
| Time | Temp. | Humidity | Pressure | Rain* | Wind** | Luminosity | Snow |
|---|---|---|---|---|---|---|---|
| 1788444132 | 28.33° C | 81% | 1009.3 hPa | 0 mm | 0.45 m/s, 275° | 0 W/m² | - |
| 1788444092 | 28.33° C | 81% | 1009.1 hPa | 0 mm | 0 m/s | 0 W/m² | - |
| 1788444010 | 28.33° C | 81% | 1009 hPa | 0 mm | 0.89 m/s, 223° | 0 W/m² | - |
| 1788443949 | 28.33° C | 81% | 1009.3 hPa | 0 mm | 0.45 m/s, 241° | 0 W/m² | - |
| 1788443888 | 28.33° C | 81% | 1009.1 hPa | 0 mm | 0.89 m/s, 171° | 0 W/m² | - |
| 1788443827 | 28.33° C | 81% | 1009.1 hPa | 0 mm | 1.79 m/s, 231° | 0 W/m² | - |
| 1788443766 | 28.33° C | 81% | 1009.2 hPa | 0 mm | 1.34 m/s, 224° | 0 W/m² | - |
| 1788443705 | 28.33° C | 81% | 1009.1 hPa | 0 mm | 0 m/s | 0 W/m² | - |
| 1788443644 | 28.33° C | 81% | 1009.1 hPa | 0 mm | 0.45 m/s, 203° | 0 W/m² | - |
| 1788443583 | 28.33° C | 81% | 1009 hPa | 0 mm | 0.45 m/s, 164° | 0 W/m² | - |
| 1788443522 | 28.33° C | 81% | 1009.1 hPa | 0 mm | 0.45 m/s, 243° | 0 W/m² | - |
| 1788443461 | 28.33° C | 81% | 1009 hPa | 0 mm | 0 m/s | 0 W/m² | - |
| 1788443400 | 28.33° C | 81% | 1009.1 hPa | 0 mm | 0 m/s | 0 W/m² | - |
| 1788443339 | 28.33° C | 81% | 1008.9 hPa | 0 mm | 1.34 m/s, 179° | 0 W/m² | - |
| 1788443278 | 28.33° C | 81% | 1009 hPa | 0 mm | 0.89 m/s, 231° | 0 W/m² | - |
| 1788443218 | 28.33° C | 81% | 1009 hPa | 0 mm | 0.89 m/s, 288° | 0 W/m² | - |
| 1788443156 | 28.89° C | 81% | 1009 hPa | 0 mm | 1.79 m/s, 227° | 0 W/m² | - |
| 1788443095 | 28.89° C | 81% | 1009 hPa | 0 mm | 1.79 m/s, 218° | 0 W/m² | - |
| 1788443034 | 28.89° C | 81% | 1009.1 hPa | 0 mm | 0.45 m/s, 310° | 0 W/m² | - |
| 1788442973 | 28.89° C | 81% | 1009 hPa | 0 mm | 0 m/s | 0 W/m² | - |
| 1788442912 | 28.89° C | 81% | 1008.9 hPa | 0 mm | 0.89 m/s, 169° | 0 W/m² | - |
| 1788442851 | 28.89° C | 81% | 1009 hPa | 0 mm | 0 m/s | 0 W/m² | - |
| 1788442790 | 28.89° C | 81% | 1009 hPa | 0 mm | 0.89 m/s, 229° | 0 W/m² | - |
| 1788442729 | 28.89° C | 81% | 1008.9 hPa | 0 mm | 0 m/s | 0 W/m² | - |
| 1788442668 | 28.33° C | 81% | 1008.8 hPa | 0 mm | 0.45 m/s, 214° | 0 W/m² | - |
* Rain latest hour (hover to see other rain measurements)
** Current wind speed in m/s (hover to see current wind gust speed)